DL2ARH-7 Weather Reports


Display with metric or nautical units.
time (UTC)temp
F
wind
direction
speed
MPH
gust
MPH
rain 1hr
in
rain 24hr
in
rain mn
in
humidity
%
barometer
mb
20260505181334 60 90 0.0 0.0 0.00 0.00 0.00 81 1005.8
20260505181229 60 60 0.0 0.0 0.00 0.00 0.00 82 1005.7
20260505181122 60 75 0.0 0.0 0.00 0.00 0.00 82 1005.7
20260505181015 60 75 0.0 0.0 0.00 0.00 0.00 82 1005.8
20260505180803 61 50 0.0 0.0 0.00 0.00 0.00 81 1005.8
20260505180656 61 45 0.0 0.0 0.00 0.00 0.00 81 1005.9
20260505180549 61 65 0.0 0.0 0.00 0.00 0.00 81 1005.9
20260505180446 61 75 0.0 0.0 0.00 0.00 0.00 81 1005.9
20260505180336 61 75 0.0 0.0 0.00 0.00 0.00 81 1005.8
20260505180229 60 75 0.0 0.0 0.00 0.00 0.00 81 1005.9
20260505180123 61 90 0.0 0.0 0.00 0.00 0.00 81 1006.0
20260505180017 61 90 0.0 0.0 0.00 0.00 0.00 81 1005.8
20260505175914 61 75 0.0 0.0 0.00 0.00 0.00 81 1005.9
20260505175656 61 50 0.0 0.0 0.00 0.00 0.00 81 1006.0
20260505175550 61 90 0.0 0.0 0.00 0.00 0.00 81 1005.9
20260505175444 62 60 0.0 0.0 0.00 0.00 0.00 81 1005.9
20260505175338 61 75 0.0 0.0 0.00 0.00 0.00 81 1005.9
20260505175232 61 90 0.0 0.0 0.00 0.00 0.00 81 1005.8
20260505175125 61 75 0.0 0.0 0.00 0.00 0.00 81 1005.9
20260505175018 61 80 0.0 0.0 0.00 0.00 0.00 81 1005.9
20260505174807 61 55 0.0 0.0 0.00 0.00 0.00 80 1005.9
20260505174659 61 75 0.0 0.0 0.00 0.00 0.00 80 1006.0
20260505174446 61 60 0.0 0.0 0.00 0.00 0.00 80 1006.0
20260505174339 61 100 0.0 0.0 0.00 0.00 0.00 80 1006.1
20260505174232 61 65 0.0 0.0 0.00 0.00 0.00 80 1006.2
20260505174020 61 75 0.0 0.0 0.00 0.00 0.00 80 1006.1
20260505173913 61 50 0.0 0.0 0.00 0.00 0.00 80 1006.1
20260505173807 61 60 0.0 0.0 0.00 0.00 0.00 80 1006.2
20260505173553 61 70 0.0 0.0 0.00 0.00 0.00 79 1006.2
20260505173234 61 60 0.0 0.0 0.00 0.00 0.00 79 1006.2
20260505173128 61 55 0.0 0.0 0.00 0.00 0.00 79 1006.3
20260505173021 61 90 0.0 0.0 0.00 0.00 0.00 79 1006.2
20260505172914 61 60 0.0 0.0 0.00 0.00 0.00 79 1006.1
20260505172701 62 70 0.0 0.0 0.00 0.00 0.00 79 1006.2
20260505172555 61 100 0.0 0.0 0.00 0.00 0.00 78 1006.2
20260505172341 61 215 0.0 0.0 0.00 0.00 0.00 78 1006.2
20260505172235 61 60 0.0 0.0 0.00 0.00 0.00 78 1006.2
20260505172129 62 70 0.0 0.0 0.00 0.00 0.00 78 1006.4
20260505171917 62 90 0.0 0.0 0.00 0.00 0.00 77 1006.3
20260505171810 61 50 0.0 0.0 0.00 0.00 0.00 77 1006.2
20260505171706 62 90 0.0 0.0 0.00 0.00 0.00 77 1006.3
20260505171556 62 120 0.0 0.0 0.00 0.00 0.00 76 1006.3
20260505171450 62 155 0.0 0.0 0.00 0.00 0.00 76 1006.2
20260505171346 62 60 0.0 0.0 0.00 0.00 0.00 76 1006.4
20260505171237 62 75 0.0 0.0 0.00 0.00 0.00 76 1006.2
20260505171130 62 55 0.0 0.0 0.00 0.00 0.00 76 1006.2
20260505170811 62 70 0.0 0.0 0.00 0.00 0.00 75 1006.5
20260505170705 62 75 0.0 0.0 0.00 0.00 0.00 75 1006.4
20260505170559 62 95 0.0 0.0 0.00 0.00 0.00 75 1006.4
20260505170451 62 55 0.0 0.0 0.00 0.00 0.00 75 1006.4
20260505170344 62 80 0.0 0.0 0.00 0.00 0.00 75 1006.4
20260505170238 62 100 0.0 0.0 0.00 0.00 0.00 74 1006.3
20260505170132 62 55 0.0 0.0 0.00 0.00 0.00 75 1006.3
20260505170025 114 50 0.0 0.0 0.00 0.00 0.00 75 1006.4
20260505165920 115 75 0.0 0.0 0.00 0.00 0.00 83 1006.4
20260505165706 62 75 0.0 0.0 0.00 0.00 0.00 73 1006.5
20260505165600 62 100 0.0 0.0 0.00 0.00 0.00 73 1006.4
20260505165452 62 105 0.0 0.0 0.00 0.00 0.00 81 1006.5
20260505165347 62 60 0.0 0.0 0.00 0.00 0.00 73 1006.7
20260505165239 63 75 0.0 0.0 0.00 0.00 0.00 73 1006.6
20260505165133 63 100 0.0 0.0 0.00 0.00 0.00 73 1006.7
20260505164922 62 90 0.0 0.0 0.00 0.00 0.00 72 1006.7
20260505164814 62 75 0.0 0.0 0.00 0.00 0.00 72 1006.6
20260505164712 62 105 0.0 0.0 0.00 0.00 0.00 72 1006.7
20260505164600 63 130 0.0 0.0 0.00 0.00 0.00 72 1006.7
20260505164455 63 120 0.0 0.0 0.00 0.00 0.00 71 1006.7
20260505164348 63 115 0.0 0.0 0.00 0.00 0.00 71 1006.7
20260505164241 63 80 0.0 0.0 0.00 0.00 0.00 71 1006.6
20260505164134 62 45 0.0 0.0 0.00 0.00 0.00 71 1006.7
20260505164028 63 85 0.0 0.0 0.00 0.00 0.00 71 1006.7
20260505163923 63 60 0.0 0.0 0.00 0.00 0.00 71 1006.7
20260505163816 63 90 0.0 0.0 0.00 0.00 0.00 70 1006.7
20260505163708 63 80 0.0 0.0 0.00 0.00 0.00 70 1006.8
20260505163602 63 140 0.0 0.0 0.00 0.00 0.00 70 1006.6
20260505163455 63 80 0.0 0.0 0.00 0.00 0.00 70 1006.6
20260505163350 63 60 0.0 0.0 0.00 0.00 0.00 70 1006.7
20260505163242 63 90 0.0 0.0 0.00 0.00 0.00 70 1006.6
20260505163139 63 55 0.0 0.0 0.00 0.00 0.00 70 1006.8
20260505163030 63 75 0.0 0.0 0.00 0.00 0.00 70 1006.7
20260505162923 63 60 0.0 0.0 0.00 0.00 0.00 70 1006.7
20260505162710 63 65 0.0 0.0 0.00 0.00 0.00 69 1006.7
20260505162604 63 50 0.0 0.0 0.00 0.00 0.00 69 1006.6
20260505162458 63 80 0.0 0.0 0.00 0.00 0.00 69 1006.6
20260505162244 64 70 0.0 0.0 0.00 0.00 0.00 69 1006.8
20260505162137 63 65 0.0 0.0 0.00 0.00 0.00 69 1006.6
20260505162031 63 70 0.0 0.0 0.00 0.00 0.00 68 1006.6
20260505161925 63 70 0.0 0.0 0.00 0.00 0.00 68 1006.7
20260505161818 63 75 0.0 0.0 0.00 0.00 0.00 68 1006.7
20260505161606 64 55 0.0 0.0 0.00 0.00 0.00 68 1006.8
20260505161458 64 65 0.0 0.0 0.00 0.00 0.00 68 1006.8
20260505161352 63 60 0.0 0.0 0.00 0.00 0.00 67 1006.7
20260505161246 64 90 0.0 0.0 0.00 0.00 0.00 67 1006.6
20260505161139 64 50 0.0 0.0 0.00 0.00 0.00 67 1006.8
20260505161032 64 55 0.0 0.0 0.00 0.00 0.00 67 1006.8
20260505160926 64 95 0.0 0.0 0.00 0.00 0.00 67 1006.7
20260505160821 64 60 0.0 0.0 0.00 0.00 0.00 67 1006.8
20260505160713 64 90 0.0 0.0 0.00 0.00 0.00 66 1006.7
20260505160606 64 75 0.0 0.0 0.00 0.00 0.00 66 1006.7
20260505160501 64 70 0.0 0.0 0.00 0.00 0.00 66 1006.7
20260505160248 64 65 0.0 0.0 0.00 0.00 0.00 66 1006.7
20260505160141 64 100 0.0 0.0 0.00 0.00 0.00 66 1006.8
20260505153359 64 90 0.0 0.0 0.00 0.00 0.00 65 1006.8
20260505153252 64 75 0.0 0.0 0.00 0.00 0.00 65 1006.8
20260505153146 64 55 0.0 0.0 0.00 0.00 0.00 65 1006.9
20260505153039 64 100 0.0 0.0 0.00 0.00 0.00 65 1006.9
20260505152932 64 60 0.0 0.0 0.00 0.00 0.00 65 1006.9
20260505152825 64 70 0.0 0.0 0.00 0.00 0.00 65 1006.9
20260505152720 64 50 0.0 0.0 0.00 0.00 0.00 65 1006.9
20260505152612 64 50 0.0 0.0 0.00 0.00 0.00 65 1007.1
20260505152508 65 65 0.0 0.0 0.00 0.00 0.00 65 1007.0
20260505152359 65 70 0.0 0.0 0.00 0.00 0.00 65 1007.0
20260505152253 65 80 0.0 0.0 0.00 0.00 0.00 65 1006.8
20260505152146 64 95 0.0 0.0 0.00 0.00 0.00 65 1007.0
20260505152039 65 50 0.0 0.0 0.00 0.00 0.00 65 1007.1
20260505151933 64 55 0.0 0.0 0.00 0.00 0.00 65 1006.9
20260505151720 65 85 0.0 0.0 0.00 0.00 0.00 65 1006.9
20260505151508 64 100 0.0 0.0 0.00 0.00 0.00 65 1007.0
20260505151401 64 65 0.0 0.0 0.00 0.00 0.00 65 1007.0
20260505151254 64 60 0.0 0.0 0.00 0.00 0.00 65 1007.0
20260505151148 64 70 0.0 0.0 0.00 0.00 0.00 65 1006.9
20260505151041 64 75 0.0 0.0 0.00 0.00 0.00 65 1007.1
20260505150935 64 60 0.0 0.0 0.00 0.00 0.00 65 1006.9
20260505150828 64 70 0.0 0.0 0.00 0.00 0.00 65 1007.1
20260505150723 64 55 2.0 0.0 0.00 0.00 0.00 65 1007.0
20260505150615 64 60 0.0 0.0 0.00 0.00 0.00 65 1007.0
20260505150509 64 80 0.0 0.0 0.00 0.00 0.00 65 1007.1
20260505150403 64 50 0.0 0.0 0.00 0.00 0.00 65 1007.0
20260505150256 64 50 0.0 0.0 0.00 0.00 0.00 65 1007.0
20260505150149 64 45 2.0 0.0 0.00 0.00 0.00 65 1007.1
20260505140624 64 75 0.0 0.0 0.00 0.00 0.00 64 1007.7
20260505140518 64 95 0.0 0.0 0.00 0.00 0.00 64 1007.7
20260505140304 64 45 0.0 0.0 0.00 0.00 0.00 64 1007.8
20260505140159 64 45 0.0 0.0 0.00 0.00 0.00 64 1007.7
20260505130207 65 95 0.0 0.0 0.00 0.00 0.00 58 1008.2
20260505124956 66 55 0.0 0.0 0.00 0.00 0.00 56 1008.2
20260505124851 66 50 0.0 0.0 0.00 0.00 0.00 55 1008.1
20260505124636 66 60 0.0 0.0 0.00 0.00 0.00 55 1008.2
20260505124530 66 75 0.0 0.0 0.00 0.00 0.00 55 1008.2
20260505124316 66 90 0.0 0.0 0.00 0.00 0.00 57 1008.3
20260505124210 66 55 0.0 0.0 0.00 0.00 0.00 57 1008.3
20260505124103 66 75 0.0 0.0 0.00 0.00 0.00 57 1008.3
20260505123958 66 80 0.0 0.0 0.00 0.00 0.00 57 1008.2
20260505123745 66 85 0.0 0.0 0.00 0.00 0.00 57 1008.3
20260505123640 66 60 0.0 0.0 0.00 0.00 0.00 57 1008.2
20260505123531 66 70 0.0 0.0 0.00 0.00 0.00 57 1008.2
20260505123426 66 50 0.0 0.0 0.00 0.00 0.00 58 1008.3
20260505123319 66 70 0.0 0.0 0.00 0.00 0.00 58 1008.3
20260505123211 65 85 0.0 0.0 0.00 0.00 0.00 58 1008.2
20260505123105 65 60 0.0 0.0 0.00 0.00 0.00 58 1008.4
20260505123001 66 95 0.0 0.0 0.00 0.00 0.00 58 1008.3
20260505122852 66 70 0.0 0.0 0.00 0.00 0.00 58 1008.4
20260505122746 66 50 14.0 0.0 0.00 0.00 0.00 58 1008.6
20260505122639 66 55 0.0 0.0 0.00 0.00 0.00 57 1008.2
20260505122533 66 50 0.0 0.0 0.00 0.00 0.00 57 1008.4
20260505122426 67 75 0.0 0.0 0.00 0.00 0.00 58 1008.3
20260505122319 66 85 0.0 0.0 0.00 0.00 0.00 58 1008.4
20260505122213 66 65 0.0 0.0 0.00 0.00 0.00 57 1008.4
20260505122106 66 95 0.0 0.0 0.00 0.00 0.00 58 1008.3
20260505122003 66 75 0.0 0.0 0.00 0.00 0.00 58 1008.5
20260505121854 66 190 0.0 0.0 0.00 0.00 0.00 58 1008.4
20260505121747 66 60 0.0 0.0 0.00 0.00 0.00 57 1008.5
20260505121643 66 100 0.0 0.0 0.00 0.00 0.00 57 1008.5
20260505121534 66 60 0.0 0.0 0.00 0.00 0.00 58 1008.4
20260505121427 66 60 0.0 0.0 0.00 0.00 0.00 57 1008.5
20260505121321 66 95 0.0 0.0 0.00 0.00 0.00 58 1008.4
20260505121214 66 85 0.0 0.0 0.00 0.00 0.00 58 1008.5
20260505121108 65 90 0.0 0.0 0.00 0.00 0.00 59 1008.6
20260505121004 66 50 0.0 0.0 0.00 0.00 0.00 59 1008.3
20260505120855 66 50 0.0 0.0 0.00 0.00 0.00 59 1008.4
20260505120748 66 80 0.0 0.0 0.00 0.00 0.00 59 1008.4
20260505120642 66 90 0.0 0.0 0.00 0.00 0.00 58 1008.6
20260505120538 66 75 0.0 0.0 0.00 0.00 0.00 57 1008.5
20260505120429 65 55 0.0 0.0 0.00 0.00 0.00 56 1008.6
20260505120217 65 85 0.0 0.0 0.00 0.00 0.00 56 1008.7
20260505120109 65 65 0.0 0.0 0.00 0.00 0.00 56 1008.6
20260505120004 66 75 6.0 0.0 0.00 0.00 0.00 56 1008.7
20260505115856 66 120 0.0 0.0 0.00 0.00 0.00 56 1008.7
20260505115750 66 200 0.0 0.0 0.00 0.00 0.00 55 1008.6
20260505115645 66 50 0.0 0.0 0.00 0.00 0.00 55 1008.6
20260505115538 66 50 8.0 0.0 0.00 0.00 0.00 55 1008.6
20260505115430 65 90 0.0 0.0 0.00 0.00 0.00 55 1008.6
20260505115324 66 70 0.0 0.0 0.00 0.00 0.00 56 1008.7
20260505115217 65 60 0.0 0.0 0.00 0.00 0.00 56 1008.6
20260505115111 66 80 0.0 0.0 0.00 0.00 0.00 56 1008.7
20260505115005 66 75 0.0 0.0 0.00 0.00 0.00 56 1008.6
20260505114751 66 70 0.0 0.0 0.00 0.00 0.00 58 1008.6
20260505114645 66 70 0.0 0.0 0.00 0.00 0.00 59 1008.6
20260505114538 66 60 0.0 0.0 0.00 0.00 0.00 59 1008.6
20260505114432 66 75 0.0 0.0 0.00 0.00 0.00 59 1008.6
20260505114325 23 75 0.0 0.0 0.00 0.00 0.00 59 1008.7
20260505114220 66 100 0.0 0.0 0.00 0.00 0.00 59 1008.7
20260505114112 65 45 0.0 0.0 0.00 0.00 0.00 59 1008.6
20260505114005 65 75 0.0 0.0 0.00 0.00 0.00 59 1008.7
20260505113859 65 45 16.0 0.0 0.00 0.00 0.00 59 1008.7
20260505113753 65 80 0.0 0.0 0.00 0.00 0.00 59 1008.6
20260505113648 65 45 0.0 0.0 0.00 0.00 0.00 58 1008.6
20260505113540 65 85 0.0 0.0 0.00 0.00 0.00 58 1008.7
20260505113434 65 60 0.0 0.0 0.00 0.00 0.00 58 1008.6
20260505113220 66 65 0.0 0.0 0.00 0.00 0.00 59 1008.6
20260505113114 65 90 0.0 0.0 0.00 0.00 0.00 59 1008.6
20260505113008 65 45 0.0 0.0 0.00 0.00 0.00 59 1008.7
20260505112902 65 75 0.0 0.0 0.00 0.00 0.00 59 1008.6
20260505112754 65 50 0.0 0.0 0.00 0.00 0.00 59 1008.7
20260505112648 65 90 0.0 0.0 0.00 0.00 0.00 59 1008.8
20260505112435 23 55 0.0 0.0 0.00 0.00 0.00 59 1008.7
20260505112328 65 100 0.0 0.0 0.00 0.00 0.00 59 1008.7
20260505112222 65 110 0.0 0.0 0.00 0.00 0.00 60 1008.8
20260505112115 65 120 0.0 0.0 0.00 0.00 0.00 60 1008.7
20260505112008 65 70 0.0 0.0 0.00 0.00 0.00 60 1008.8
20260505111904 64 85 0.0 0.0 0.00 0.00 0.00 60 1008.6
20260505111756 64 65 0.0 0.0 0.00 0.00 0.00 60 1008.7
20260505111650 65 75 0.0 0.0 0.00 0.00 0.00 61 1008.8
20260505111543 64 75 0.0 0.0 0.00 0.00 0.00 62 1008.7
20260505111440 65 90 0.0 0.0 0.00 0.00 0.00 63 1008.8
20260505111329 65 95 0.0 0.0 0.00 0.00 0.00 64 1008.7
20260505111116 65 75 0.0 0.0 0.00 0.00 0.00 64 1008.8
20260505111011 65 75 0.0 0.0 0.00 0.00 0.00 64 1008.7
20260505110906 65 90 0.0 0.0 0.00 0.00 0.00 64 1008.8
20260505110757 65 110 0.0 0.0 0.00 0.00 0.00 64 1008.7
20260505110651 65 85 0.0 0.0 0.00 0.00 0.00 64 1008.8
20260505110544 65 100 0.0 0.0 0.00 0.00 0.00 64 1008.9
20260505110225 65 145 0.0 0.0 0.00 0.00 0.00 66 1008.8
20260505102124 62 60 0.0 0.0 0.00 0.00 0.00 85 1009.2
20260505102018 62 90 0.0 0.0 0.00 0.00 0.00 85 1009.2
20260505101911 61 55 0.0 0.0 0.00 0.00 0.00 85 1009.2
20260505101804 61 75 0.0 0.0 0.00 0.00 0.00 86 1009.3
20260505101700 61 75 0.0 0.0 0.00 0.00 0.00 86 1009.2
20260505101552 61 65 0.0 0.0 0.00 0.00 0.00 86 1009.2
20260505101445 61 70 0.0 0.0 0.00 0.00 0.00 86 1009.2
20260505101339 60 90 0.0 0.0 0.00 0.00 0.00 87 1009.3
20260505101232 60 65 0.0 0.0 0.00 0.00 0.00 86 1009.3
20260505101125 60 55 0.0 0.0 0.00 0.00 0.00 87 1009.3
20260505101020 60 70 0.0 0.0 0.00 0.00 0.00 87 1009.3
20260505100915 60 65 0.0 0.0 0.00 0.00 0.00 87 1009.3
20260505100553 60 70 0.0 0.0 0.00 0.00 0.00 88 1009.4
20260505100341 60 80 0.0 0.0 0.00 0.00 0.00 88 1009.4
20260505100233 60 75 0.0 0.0 0.00 0.00 0.00 88 1009.4
20260505100020 60 55 0.0 0.0 0.00 0.00 0.00 88 1009.3
20260505095914 60 75 0.0 0.0 0.00 0.00 0.00 88 1009.4
20260505095808 60 85 0.0 0.0 0.00 0.00 0.00 89 1009.4
20260505095555 60 90 0.0 0.0 0.00 0.00 0.00 89 1009.4
20260505095450 60 60 0.0 0.0 0.00 0.00 0.00 89 1009.4
20260505095342 60 70 0.0 0.0 0.00 0.00 0.00 89 1009.5
20260505095129 60 65 0.0 0.0 0.00 0.00 0.00 89 1009.4
20260505095022 59 100 0.0 0.0 0.00 0.00 0.00 89 1009.4
20260505094915 59 45 0.0 0.0 0.00 0.00 0.00 89 1009.5
20260505094702 59 75 0.0 0.0 0.00 0.00 0.00 89 1009.5
20260505094556 60 165 0.0 0.0 0.00 0.00 0.00 88 1009.4
20260505094452 59 45 0.0 0.0 0.00 0.00 0.00 89 1009.5
20260505094343 59 75 0.0 0.0 0.00 0.00 0.00 88 1009.5
20260505094237 59 45 0.0 0.0 0.00 0.00 0.00 88 1009.4
20260505094131 59 85 0.0 0.0 0.00 0.00 0.00 88 1009.4
20260505094023 59 70 0.0 0.0 0.00 0.00 0.00 88 1009.5
20260505093917 59 55 0.0 0.0 0.00 0.00 0.00 88 1009.4
20260505093704 59 70 0.0 0.0 0.00 0.00 0.00 88 1009.3
20260505093558 59 55 0.0 0.0 0.00 0.00 0.00 88 1009.5
20260505093451 59 65 0.0 0.0 0.00 0.00 0.00 88 1009.6
20260505093239 59 80 0.0 0.0 0.00 0.00 0.00 88 1009.7
20260505093131 59 110 0.0 0.0 0.00 0.00 0.00 88 1009.5
20260505093026 59 85 0.0 0.0 0.00 0.00 0.00 88 1009.6
20260505092918 60 90 0.0 0.0 0.00 0.00 0.00 88 1009.5
20260505092559 59 115 0.0 0.0 0.00 0.00 0.00 88 1009.7
20260505092346 59 75 0.0 0.0 0.00 0.00 0.00 88 1009.7
20260505092240 59 50 0.0 0.0 0.00 0.00 0.00 88 1009.6
20260505092028 59 70 0.0 0.0 0.00 0.00 0.00 88 1009.6
20260505091920 59 100 0.0 0.0 0.00 0.00 0.00 88 1009.6
20260505091708 59 95 0.0 0.0 0.00 0.00 0.00 88 1009.8
20260505091600 59 85 0.0 0.0 0.00 0.00 0.00 99 1009.7
20260505091454 59 90 0.0 0.0 0.00 0.00 0.00 89 1009.7
20260505091348 59 110 0.0 0.0 0.00 0.00 0.00 89 1009.6
20260505091243 59 50 0.0 0.0 0.00 0.00 0.00 89 1009.7
20260505091134 59 130 0.0 0.0 0.00 0.00 0.00 89 1009.8
20260505090921 59 110 0.0 0.0 0.00 0.00 0.00 89 1009.7
20260505090815 59 120 0.0 0.0 0.00 0.00 0.00 89 1009.7
20260505090710 59 100 0.0 0.0 0.00 0.00 0.00 89 1009.7
20260505090602 60 70 0.0 0.0 0.00 0.00 0.00 89 1009.7
20260505090455 59 90 0.0 0.0 0.00 0.00 0.00 89 1009.6
20260505090243 59 220 0.0 0.0 0.00 0.00 0.00 90 1009.8
20260505090136 59 145 0.0 0.0 0.00 0.00 0.00 90 1009.6
20260505090031 59 75 0.0 0.0 0.00 0.00 0.00 90 1009.6
20260505085923 59 110 0.0 0.0 0.00 0.00 0.00 90 1009.8
20260505085710 59 45 0.0 0.0 0.00 0.00 0.00 90 1009.7
20260505085457 59 45 0.0 0.0 0.00 0.00 0.00 90 1009.7
20260505085350 59 60 0.0 0.0 0.00 0.00 0.00 90 1009.8
20260505085244 59 120 0.0 0.0 0.00 0.00 0.00 90 1009.7
20260505085140 58 120 0.0 0.0 0.00 0.00 0.00 90 1009.7
20260505084924 59 160 0.0 0.0 0.00 0.00 0.00 91 1009.8
20260505084711 104 150 0.0 0.0 0.00 0.00 0.00 91 1009.7
20260505084605 59 280 0.0 0.0 0.00 0.00 0.00 91 1009.8
20260505084352 59 60 0.0 0.0 0.00 0.00 0.00 91 1009.7